This is the latest recevied weather packets stored in our database for station/object ED5YAL-15. If no packets are shown the sender has not sent any weather packets the latest 10 day(s).
| Time | Temp. | Humidity | Pressure | Rain* | Wind** | Luminosity | Snow |
|---|---|---|---|---|---|---|---|
| 1777590091 | 14.44° C | 51% | 1022.1 hPa | - | - | - | - |
| 1777589190 | 15° C | 50% | 1022 hPa | - | - | - | - |
| 1777588289 | 16.67° C | 49% | 1021.9 hPa | - | - | - | - |
| 1777587388 | 16.11° C | 50% | 1021.9 hPa | - | - | - | - |
| 1777586488 | 15.56° C | 50% | 1021.8 hPa | - | - | - | - |
| 1777585587 | 15.56° C | 51% | 1021.8 hPa | - | - | - | - |
| 1777584686 | 15.56° C | 50% | 1021.7 hPa | - | - | - | - |
| 1777583785 | 16.11° C | 50% | 1021.8 hPa | - | - | - | - |
| 1777582884 | 16.11° C | 49% | 1021.6 hPa | - | - | - | - |
| 1777581984 | 16.11° C | 49% | 1021.6 hPa | - | - | - | - |
| 1777581083 | 16.67° C | 48% | 1021.4 hPa | - | - | - | - |
| 1777580182 | 20° C | 48% | 1021.1 hPa | - | - | - | - |
| 1777579306 | 17.78° C | 48% | 1020.7 hPa | - | - | - | - |
| 1777578405 | 17.78° C | 48% | 1020.5 hPa | - | - | - | - |
| 1777577504 | 17.78° C | 48% | 1020.3 hPa | - | - | - | - |
| 1777576603 | 17.78° C | 48% | 1020.3 hPa | - | - | - | - |
| 1777575703 | 17.22° C | 49% | 1020.2 hPa | - | - | - | - |
| 1777574804 | 17.22° C | 48% | 1019.9 hPa | - | - | - | - |
| 1777573898 | 17.22° C | 48% | 1020 hPa | - | - | - | - |
| 1777572997 | 17.22° C | 48% | 1019.7 hPa | - | - | - | - |
| 1777572096 | 17.78° C | 48% | 1019.8 hPa | - | - | - | - |
| 1777571196 | 17.78° C | 48% | 1019.8 hPa | - | - | - | - |
| 1777570295 | 18.33° C | 48% | 1019.7 hPa | - | - | - | - |
| 1777569399 | 20° C | 47% | 1019.6 hPa | - | - | - | - |
| 1777568495 | 22.78° C | 46% | 1019.5 hPa | - | - | - | - |
* Rain since midnight (hover to see other rain measurements)
** Current wind speed in m/s (hover to see current wind gust speed)